Weather History for George, South Africa

Change the Weather History Date:

Monday, March 25, 2013

  Actual Average Record
Temperature  
Mean Temperature 60 °F -  
Max Temperature 71 °F 70 °F 86 °F (1999)
Min Temperature 50 °F 54 °F 50 °F (2007)
Degree Days  
Heating Degree Days 4    
Growing Degree Days 10 (Base 50)    
Moisture  
Dew Point 56 °F    
Average Humidity 79    
Maximum Humidity 94    
Minimum Humidity 52    
Precipitation  
Precipitation 0.00 in - - ()
Sea Level Pressure  
Sea Level Pressure 30.15 in    
Wind  
Wind Speed 6 mph ()    
Max Wind Speed 15 mph    
Max Gust Speed -    
Visibility 7.9 miles    
Events      
Averages and records for this station are not official NWS values.
T = Trace of Precipitation, MM = Missing Value Source: Averaged Metar Reports

Daily Weather History Graph

Daily Weather History Graph

Search for Another Location

Airport:

Trip Planner

Search our weather history database for the weather conditions in past years. The results will help you decide how hot, cold, wet, or windy it might be!

Date:

Astronomy

Mar. 25, 2013 Rise Set
Actual Time 6:37 AM SAST 6:34 PM SAST
Civil Twilight 6:12 AM SAST 6:59 PM SAST
Nautical Twilight 5:43 AM SAST 7:28 PM SAST
Astronomical Twilight 5:14 AM SAST 7:57 PM SAST
Moon 5:14 PM SAST (3/25) 4:29 AM SAST (3/25)
Length of Visible Light 12h 47m
Length of Day
11h 57m
Waxing Gibbous, 95% of the Moon is Illuminated
Mar 25
Waxing Gibbous
Mar 27
Full
Apr 3
Last Quarter
Apr 10
New
Apr 18
First Quarter

Hourly Weather History & Observations

Time (SAST) Temp. Dew Point Humidity Pressure Visibility Wind Dir Wind Speed Gust Speed Precip Events Conditions
12:00 AM 57.2 °F 53.6 °F 88% 30.18 in 6.2 mi North 3.5 mph - N/A   Scattered Clouds
1:00 AM 55.4 °F 51.8 °F 88% 30.18 in 6.2 mi NW 2.3 mph - N/A   Mostly Cloudy
2:00 AM 55 °F 51 °F 80% 30.19 in 12 mi WNW 2.3 mph - -  
2:00 AM 55.4 °F 51.8 °F 88% 30.18 in - WNW 2.3 mph - N/A   Clear
3:00 AM 53.6 °F 50.0 °F 88% 30.15 in - NNW 2.3 mph - N/A   Clear
4:00 AM 51.8 °F 48.2 °F 88% 30.15 in - NE 5.8 mph - N/A   Clear
5:00 AM 53 °F 48 °F 79% 30.17 in 12 mi NNW 2.3 mph - -   Scattered Clouds
5:00 AM 51.8 °F 48.2 °F 88% 30.15 in 6.2 mi NW 2.3 mph - N/A   Partly Cloudy
6:00 AM 51.8 °F 50.0 °F 94% 30.15 in 6.2 mi Calm Calm - N/A   Partly Cloudy
7:00 AM 53.6 °F 50.0 °F 88% 30.18 in 6.2 mi North 2.3 mph - N/A   Scattered Clouds
8:00 AM 56 °F 53 °F 85% 30.20 in 12 mi North 4.6 mph - -   Mostly Cloudy
8:00 AM 55.4 °F 51.8 °F 88% 30.18 in 6.2 mi North 4.6 mph - N/A   Scattered Clouds
9:00 AM 62.6 °F 57.2 °F 82% 30.18 in 6.2 mi East 3.5 mph - N/A   Mostly Cloudy
10:00 AM 68.0 °F 57.2 °F 68% 30.18 in 6.2 mi ESE 6.9 mph - N/A   Scattered Clouds
11:00 AM 70 °F 56 °F 52% 30.18 in 19 mi ESE 12.7 mph - -   Partly Cloudy
11:00 AM 69.8 °F 55.4 °F 60% 30.18 in 6.2 mi ESE 10.4 mph - N/A   Scattered Clouds
12:00 PM 69.8 °F 57.2 °F 64% 30.15 in 6.2 mi SE 12.7 mph - N/A   Scattered Clouds
1:00 PM 69.8 °F 59.0 °F 68% 30.15 in 6.2 mi SE 13.8 mph - N/A   Scattered Clouds
2:00 PM 70 °F 59 °F 59% 30.14 in 12 mi ESE 13.8 mph - -   Mostly Cloudy
2:00 PM 69.8 °F 59.0 °F 68% 30.12 in 6.2 mi ESE 13.8 mph - N/A   Mostly Cloudy
3:00 PM 69.8 °F 60.8 °F 73% 30.12 in 6.2 mi ESE 13.8 mph - N/A   Mostly Cloudy
4:00 PM 68.0 °F 59.0 °F 73% 30.09 in 6.2 mi ESE 15.0 mph - N/A   Mostly Cloudy
5:00 PM 68 °F 60 °F 68% 30.11 in 12 mi ESE 12.7 mph - -   Mostly Cloudy
5:00 PM 68.0 °F 60.8 °F 78% 30.09 in 6.2 mi ESE 12.7 mph - N/A   Scattered Clouds
6:00 PM 66.2 °F 60.8 °F 83% 30.09 in 6.2 mi ESE 13.8 mph - N/A   Scattered Clouds
7:00 PM 64.4 °F 60.8 °F 88% 30.12 in 6.2 mi ESE 12.7 mph - N/A   Mostly Cloudy
8:00 PM 65 °F 59 °F 76% 30.13 in 12 mi ESE 13.8 mph - -   Mostly Cloudy
8:00 PM 64.4 °F 59.0 °F 83% 30.12 in 6.2 mi ESE 13.8 mph - N/A   Scattered Clouds
9:00 PM 64.4 °F 59.0 °F 83% 30.12 in 6.2 mi East 11.5 mph - N/A   Mostly Cloudy
10:00 PM 64.4 °F 59.0 °F 83% 30.12 in 6.2 mi East 9.2 mph - N/A   Mostly Cloudy
11:00 PM 64.4 °F 59.0 °F 83% 30.15 in 6.2 mi East 9.2 mph - N/A   Mostly Cloudy